#timestamp,LO_Frequency,Hit,StdDev 
1546927215.2,286047003.9,N
1546927235.1,286047003.4,N
1546927236.0,286047003.4,N
1546927255.8,286046999.2,N
1546927275.6,286046999.3,N
1546927295.5,286046997.9,N
1546927315.3,286046996.6,N
1546927335.1,286047005.6,N
1546927355.9,286047006.9,N
1546927375.7,286047002.9,N
1546927395.6,286047008.6,N
1546927415.4,286047007.5,N
1546927435.3,286047001.5,N
1546927455.1,286046992.0,N
1546927456.0,286046992.0,N
1546927475.8,286046997.0,N
1546927495.7,286047001.8,N
1546927515.5,286046994.4,N
1546927535.4,286046987.5,N
1546927555.2,286046994.6,N
1546927575.0,286046985.6,N
1546927575.9,286046985.6,N
1546927595.8,286046981.1,N
1546927615.6,286046989.6,N
1546927635.4,286046989.5,N
1546927655.3,286046984.3,N
1546927675.1,286046991.7,N
1546927695.9,286046994.0,N
1546927715.7,286046990.3,N
1546927735.6,286046991.0,N
1546927755.4,286046994.1,N
1546927775.2,286046992.6,N
1546927795.1,286046986.3,N
1546927796.0,286046986.3,N
1546927815.8,286046986.1,N
1546927835.6,286046991.4,N
1546927855.5,286046981.2,N
1546927875.3,286046980.6,N
1546927895.2,286046986.6,N
1546927915.9,286046990.9,N
1546927935.7,286046984.5,N
1546927955.6,286046985.7,N
1546927975.4,286046989.3,N
1546927995.2,286046986.3,N
1546928015.1,286046984.7,Y
1546928016.0,286046984.7,P
1546928035.8,286046991.8,P
1546928055.7,286046995.3,N
1546928075.5,286046994.6,N
1546928095.3,286046997.8,N
1546928115.2,286046998.9,N
1546928135.0,286046996.6,N
1546928135.9,286046996.6,N
1546928155.8,286046997.8,N
1546928175.6,286046999.1,N
1546928195.4,286047004.6,N
1546928215.3,286047003.8,N
1546928235.1,286047000.4,N
1546928255.9,286047002.3,N
1546928275.7,286047000.1,N
1546928295.5,286047002.9,N
1546928315.4,286047004.5,N
1546928335.2,286047010.3,N
1546928355.1,286047012.2,N
1546928356.0,286047012.2,N
1546928375.8,286047003.9,N
1546928395.6,286047000.4,N
1546928415.5,286046995.9,N
1546928435.3,286047007.0,N
1546928455.2,286047008.9,N
1546928475.9,286047009.2,N
1546928495.7,286047003.3,N
1546928515.6,286047003.5,N
1546928535.4,286046992.1,N
1546928555.2,286046992.9,N
1546928575.1,286047000.2,N
1546928576.0,286047000.2,N
1546928595.8,286046995.6,N
1546928615.7,286046995.6,N
1546928635.5,286046997.7,N
1546928655.3,286046994.7,N
1546928675.2,286046995.5,N
1546928695.9,286046992.2,N
1546928715.7,286046995.1,N
1546928735.6,286046998.8,N
1546928755.4,286046996.5,N
1546928775.2,286046997.0,N
1546928795.1,286046997.8,N
1546928796.0,286046997.8,N
1546928815.8,286046994.9,N
1546928835.6,286046992.8,N
1546928855.5,286046994.6,N
1546928875.3,286046996.3,N
1546928895.2,286046990.3,N
1546928915.9,286046994.0,N
1546928935.7,286046992.4,N
1546928955.6,286046988.9,N
1546928975.4,286046993.5,N
1546928995.2,286046993.8,N
1546929015.1,286046994.5,N
1546929016.0,286046994.5,N
1546929035.8,286046993.5,N
1546929055.7,286046993.6,N
1546929075.5,286046999.6,N
1546929095.3,286046995.8,N
1546929115.2,286046995.0,N
1546929135.0,286046991.8,Y
1546929135.9,286046991.8,P
1546929155.8,286046999.1,N
1546929175.6,286047000.7,N
1546929195.4,286046998.9,N
1546929215.3,286046995.9,N
1546929235.1,286046993.5,N
1546929255.9,286046996.4,N
1546929275.7,286046989.6,Y
1546929295.5,286046998.0,P
1546929315.4,286046993.3,P
1546929335.2,286046996.8,N
1546929355.1,286046997.0,N
1546929356.0,286046997.0,N
1546929375.8,286046998.4,N
1546929395.6,286047005.1,Y
1546929415.5,286047011.1,P
1546929435.3,286047004.7,N
1546929455.1,286047005.5,N
1546929475.9,286047010.4,N
1546929495.7,286047009.0,N
1546929515.6,286047002.0,N
1546929535.4,286047003.2,N
1546929555.2,286047006.9,N
1546929575.1,286047012.0,N
1546929576.0,286047012.0,N
1546929595.8,286047009.7,N
1546929615.6,286047008.8,N
1546929635.5,286047009.4,N
1546929655.3,286047014.1,Y
1546929675.2,286047006.0,P
1546929695.0,286047002.1,P
1546929695.9,286047002.1,N
1546929715.7,286047001.0,N
1546929735.6,286046999.2,N
1546929755.4,286047000.1,N
1546929775.3,286046998.2,N
1546929795.1,286047000.7,N
1546929796.0,286047000.7,N
1546929845.9,286047007.4,E
1546929855.8,286047002.9,N
1546929875.6,286047003.4,P
1546929895.5,286047001.0,P
1546929915.3,286047000.6,N
1546929935.1,286046999.5,N
1546929955.9,286046998.2,N
1546929975.7,286047001.3,N
1546929995.6,286047008.4,Y
1546930015.4,286047006.2,P
1546930035.2,286047009.1,P
1546930055.1,286047007.5,N
1546930056.0,286047007.5,N
1546930075.8,286047005.1,N
1546930095.7,286047007.2,N
1546930115.5,286047005.2,N
1546930135.3,286047003.6,N
1546930155.2,286047001.3,N
1546930175.0,286046998.4,N
1546930175.9,286046998.4,N
1546930195.8,286047000.3,N
1546930215.6,286047002.1,N
1546930235.4,286046998.3,N
1546930255.3,286046997.1,N
1546930275.1,286046994.1,N
1546930295.9,286046994.0,N
1546930315.4,286046995.6,N
1546930335.2,286046993.9,N
1546930355.0,286046990.9,N
1546930355.9,286046990.9,N
1546930375.8,286046991.5,N
1546930395.6,286046990.3,N
1546930415.5,286046996.3,N
1546930435.3,286046992.7,N
1546930455.1,286046991.8,N
1546930475.9,286046992.9,N
1546930495.7,286046993.8,N
1546930515.5,286046996.9,N
1546930535.4,286046995.5,N
1546930555.2,286046993.5,N
1546930575.1,286046986.3,N
1546930576.0,286046995.3,N
1546930595.8,286046995.0,N
1546930615.6,286046995.2,N
1546930635.5,286046997.8,N
1546930655.3,286046999.2,N
1546930675.2,286046999.2,N
1546930695.9,286047002.2,N
1546930715.7,286047002.2,N
1546930735.6,286047003.3,N
1546930755.4,286047003.9,N
1546930775.2,286047001.6,N
1546930795.1,286047000.4,N
1546930796.0,286047000.4,N
